This is the latest recevied weather packets stored in our database for station/object WK1F-2. If no packets are shown the sender has not sent any weather packets the latest 10 day(s).
| Time | Temp. | Humidity | Pressure | Rain* | Wind** | Luminosity | Snow |
|---|---|---|---|---|---|---|---|
| 1777402425 | 22.78° C | 75% | 1021.5 hPa | 0 mm | - | - | - |
| 1777402125 | 23.33° C | 77% | 1021.4 hPa | 0 mm | - | - | - |
| 1777401825 | 22.78° C | 77% | 1021.5 hPa | 0 mm | - | - | - |
| 1777401525 | 23.33° C | 77% | 1021.6 hPa | 0 mm | - | - | - |
| 1777401225 | 23.33° C | 77% | 1021.6 hPa | 0 mm | - | - | - |
| 1777400925 | 23.33° C | 77% | 1021.7 hPa | 0 mm | - | - | - |
| 1777400625 | 23.33° C | 75% | 1021.8 hPa | 0 mm | - | - | - |
| 1777400325 | 23.33° C | 77% | 1021.8 hPa | 0 mm | - | - | - |
| 1777400025 | 23.33° C | 76% | 1021.9 hPa | 0 mm | - | - | - |
| 1777399725 | 23.89° C | 75% | 1021.9 hPa | 0 mm | - | - | - |
| 1777399425 | 23.89° C | 76% | 1021.9 hPa | 0 mm | - | - | - |
| 1777399125 | 23.33° C | 75% | 1022.1 hPa | 0 mm | - | - | - |
| 1777398825 | 23.33° C | 75% | 1022 hPa | 0 mm | - | - | - |
| 1777398525 | 23.33° C | 75% | 1022.2 hPa | 0 mm | - | - | - |
| 1777398225 | 23.89° C | 75% | 1022.1 hPa | 0 mm | - | - | - |
| 1777397925 | 24.44° C | 73% | 1022.1 hPa | 0 mm | - | - | - |
| 1777397625 | 24.44° C | 74% | 1022 hPa | 0 mm | - | - | - |
| 1777397325 | 24.44° C | 73% | 1021.9 hPa | 0 mm | - | - | - |
| 1777397025 | 24.44° C | 72% | 1021.9 hPa | 0 mm | - | - | - |
| 1777396725 | 24.44° C | 70% | 1022 hPa | 0 mm | - | - | - |
| 1777396425 | 24.44° C | 69% | 1022.1 hPa | 0 mm | - | - | - |
| 1777396125 | 24.44° C | 69% | 1022.2 hPa | 0 mm | - | - | - |
| 1777395825 | 24.44° C | 70% | 1022.2 hPa | 0 mm | - | - | - |
| 1777395525 | 24.44° C | 72% | 1022.3 hPa | 0 mm | - | - | - |
| 1777395225 | 23.89° C | 75% | 1022.4 hPa | 0 mm | - | - | - |
* Rain latest hour (hover to see other rain measurements)
** Current wind speed in m/s (hover to see current wind gust speed)